Flag for Canada Weather past 2 weeks in Newmarket, Ontario, Canada

Now
27 °F

Clear.


Feels Like: 20 °F
Forecast: 22 / 43 °F
Wind: 6 mph from North

Location: Borden

Current Time: Mar 31, 2015 at 10:04:48 PM

Latest Report: Mar 31, 2015 at 9:00 PM


Visibility: 9 mi

Pressure: 29.97 "Hg

Humidity: 64%

Dew point: 16 °F

Location of NewmarketLocation

Historic Weather in Newmarket — Graph

°F

Newmarket temperature yesterday

Maximum temperature yesterday: 43 °F (at 2:00 PM)
Minimum temperature yesterday: 30 °F (at 11:00 PM)
Average temperature yesterday: 37 °F

Past Weeks' High & Low Weather Summary

 TemperatureHumidityPressure
High48 °F (Mar 20, 3:00 PM)100% (Mar 16, 10:00 PM)30.45 "Hg (Mar 16, 10:00 PM)
Low3 °F (Mar 24, 2:00 AM)21% (Mar 20, 4:00 PM)29.53 "Hg (Mar 30, 4:00 AM)
Average27 °F68%30.07 "Hg
* Reported Mar 16 9:00 PM — Mar 31 9:00 PM, Newmarket, Weather by CustomWeather, © 2015

Note: Actual official high and low records may vary slightly from our data, if they occured in-between our weather recording intervals... More about our weather records

Advertising

Newmarket weather history for previous 24 hours

 ConditionsComfort  
Time TempWeatherWind HumidityBarometerVisibility
9:00 PM
Tue, Mar 31
27 °FClear.6 mph64%29.97 "Hg9 mi
8:00 PM27 °FSunny.5 mph59%29.95 "Hg9 mi
7:00 PM30 °FSunny.8 mph55%29.93 "Hg9 mi
6:00 PM34 °FSunny.12 mph56%29.91 "Hg9 mi
5:00 PM34 °FSunny.12 mph56%29.89 "Hg9 mi
4:00 PM36 °FSunny.14 mph52%29.87 "Hg9 mi
3:00 PM37 °FScattered clouds.9 mph52%29.86 "Hg9 mi
2:00 PM37 °FPartly sunny.9 mph52%29.85 "Hg9 mi
1:00 PM37 °FPartly sunny.7 mph56%29.84 "Hg9 mi
12:00 PM34 °FPartly sunny.5 mph65%29.84 "Hg9 mi
11:00 AM34 °FOvercast.3 mph75%29.85 "Hg9 mi
10:45 AM34 °FOvercast.5 mph75%29.83 "Hg9 mi
10:00 AM30 °FMostly cloudy.2 mph86%29.86 "Hg9 mi
9:53 AM30 °FPartly sunny.3 mph86%29.83 "Hg9 mi
9:00 AM28 °FSunny.2 mph93%29.87 "Hg9 mi
8:00 AM25 °FOvercast.No wind93%29.87 "Hg9 mi
7:00 AM21 °FOvercast.3 mph93%29.87 "Hg9 mi
6:45 AM21 °FPassing clouds.No wind93%29.84 "Hg9 mi
6:00 AM21 °FClear.No wind93%29.86 "Hg9 mi
5:00 AM21 °FClear.No wind93%29.86 "Hg9 mi
4:00 AM23 °FClear.2 mph93%29.88 "Hg9 mi
3:00 AM21 °FClear.5 mph100%29.90 "Hg9 mi
2:00 AM23 °FClear.2 mph93%29.91 "Hg9 mi
1:00 AM27 °FClear.3 mph93%29.90 "Hg9 mi
12:00 AM28 °FClear.5 mph80%29.91 "Hg9 mi
11:00 PM
Mon, Mar 30
30 °FPassing clouds.6 mph80%29.90 "Hg9 mi
10:00 PM32 °FClear.7 mph75%29.90 "Hg9 mi
Weather by CustomWeather, © 2015

See weather overviewHow to use our weather pages